• In Czech Republic
  • List of Countries
  • For 7 days
  • Water Temperature
  • Satellite Maps
  • Weather Map
  • Weather Widgets
  • user-avatar
    Login

    Hourly Weather Kaprun

    Today, 21 October, Sunday

    Time Temperature Precipitation Wind Pressure Humidity
    00:00 -1°C° 0 mm 2 mps 601 mmHg 93%
    01:00 -1°C° 0 mm 2 mps 601 mmHg 92%
    02:00 -1°C° 0 mm 2 mps 601 mmHg 91%
    03:00 -1°C° 0 mm 2 mps 600 mmHg 90%
    04:00 -1°C° 0 mm 2 mps 600 mmHg 89%
    05:00 -1°C° 0 mm 2 mps 600 mmHg 89%
    06:00 -1°C° 0 mm 2 mps 600 mmHg 88%
    07:00 0°C° 0 mm 3 mps 601 mmHg 90%
    08:00 0°C° 0.1 mm 3 mps 601 mmHg 85%
    09:00 +1°C° 0.1 mm 3 mps 601 mmHg 79%
    10:00 +1°C° 0.1 mm 3 mps 601 mmHg 74%
    11:00 +2°C° 0.1 mm 3 mps 601 mmHg 71%
    12:00 +2°C° 0.1 mm 3 mps 601 mmHg 67%
    13:00 +2°C° 0 mm 3 mps 601 mmHg 62%
    14:00 +2°C° 0 mm 3 mps 601 mmHg 64%
    15:00 +1°C° 0 mm 3 mps 601 mmHg 66%
    16:00 0°C° 0 mm 3 mps 600 mmHg 68%
    17:00 -1°C° 0 mm 2 mps 600 mmHg 76%
    18:00 -3°C° 0 mm 2 mps 600 mmHg 83%
    19:00 -4°C° 0 mm 2 mps 599 mmHg 91%
    20:00 -4°C° 0 mm 2 mps 599 mmHg 90%
    21:00 -3°C° 0 mm 1 mps 599 mmHg 90%
    22:00 -3°C° 0 mm 1 mps 599 mmHg 90%
    23:00 -3°C° 0 mm 1 mps 599 mmHg 87%

    Tomorrow, 22 October, Monday

    Time Temperature Precipitation Wind Pressure Humidity
    00:00 -3°C° 0 mm 1 mps 599 mmHg 83%
    01:00 -3°C° 0 mm 1 mps 599 mmHg 80%
    02:00 -3°C° 0 mm 1 mps 599 mmHg 78%
    03:00 -3°C° 0 mm 1 mps 599 mmHg 75%
    04:00 -3°C° 0 mm 1 mps 598 mmHg 72%
    05:00 -3°C° 0 mm 1 mps 599 mmHg 69%
    06:00 -3°C° 0 mm 1 mps 599 mmHg 67%
    07:00 -2°C° 0 mm 1 mps 599 mmHg 64%
    08:00 0°C° 0 mm 1 mps 600 mmHg 56%
    09:00 +3°C° 0 mm 1 mps 601 mmHg 49%
    10:00 +6°C° 0 mm 1 mps 602 mmHg 41%
    11:00 +5°C° 0 mm 2 mps 602 mmHg 42%
    12:00 +6°C° 0 mm 2 mps 602 mmHg 42%
    13:00 +7°C° 0 mm 2 mps 602 mmHg 43%
    14:00 +6°C° 0 mm 2 mps 602 mmHg 50%
    15:00 +5°C° 0 mm 2 mps 601 mmHg 57%
    16:00 +4°C° 0 mm 2 mps 601 mmHg 63%
    17:00 +2°C° 0 mm 2 mps 601 mmHg 72%
    18:00 -1°C° 0 mm 2 mps 600 mmHg 82%
    19:00 -3°C° 0 mm 2 mps 600 mmHg 91%
    20:00 -3°C° 0 mm 2 mps 601 mmHg 92%
    21:00 -3°C° 0 mm 2 mps 601 mmHg 93%
    22:00 -3°C° 0 mm 2 mps 601 mmHg 93%
    23:00 -3°C° 0 mm 2 mps 601 mmHg 91%

    Day after tomorrow, 23 October, Tuesday

    Time Temperature Precipitation Wind Pressure Humidity
    00:00 -3°C° 0 mm 2 mps 601 mmHg 90%
    01:00 -3°C° 0 mm 2 mps 601 mmHg 88%
    02:00 -3°C° 0 mm 2 mps 601 mmHg 88%
    03:00 -3°C° 0 mm 2 mps 601 mmHg 87%
    04:00 -3°C° 0 mm 2 mps 601 mmHg 87%
    05:00 -3°C° 0 mm 2 mps 601 mmHg 87%
    06:00 -4°C° 0 mm 2 mps 601 mmHg 87%
    07:00 -4°C° 0 mm 2 mps 601 mmHg 87%
    08:00 -1°C° 0 mm 2 mps 602 mmHg 77%
    09:00 +2°C° 0 mm 2 mps 602 mmHg 68%
    10:00 +4°C° 0 mm 2 mps 603 mmHg 59%
    11:00 +5°C° 0 mm 2 mps 603 mmHg 54%
    12:00 +6°C° 0 mm 2 mps 603 mmHg 49%
    13:00 +7°C° 0 mm 2 mps 603 mmHg 43%
    14:00 +6°C° 0 mm 2 mps 602 mmHg 48%
    15:00 +5°C° 0 mm 2 mps 601 mmHg 53%
    16:00 +5°C° 0 mm 2 mps 601 mmHg 57%
    17:00 +3°C° 0 mm 2 mps 600 mmHg 63%
    18:00 +2°C° 0 mm 2 mps 600 mmHg 68%
    19:00 -1°C° 0 mm 2 mps 600 mmHg 73%
    20:00 +1°C° 0.1 mm 2 mps 600 mmHg 72%
    21:00 0°C° 0.1 mm 3 mps 600 mmHg 70%
    22:00 0°C° 0.1 mm 3 mps 600 mmHg 69%
    23:00 0°C° 0.1 mm 3 mps 599 mmHg 69%

    24 October, Wednesday

    Time Temperature Precipitation Wind Pressure Humidity
    00:00 0°C° 0.1 mm 3 mps 599 mmHg 70%
    01:00 0°C° 0.1 mm 3 mps 599 mmHg 70%
    02:00 0°C° 0.1 mm 3 mps 599 mmHg 72%
    03:00 -1°C° 0.1 mm 3 mps 598 mmHg 74%
    04:00 -1°C° 0.1 mm 3 mps 598 mmHg 76%
    05:00 0°C° 0.4 mm 3 mps 598 mmHg 79%
    06:00 0°C° 0.4 mm 3 mps 598 mmHg 82%
    07:00 0°C° 0.4 mm 3 mps 598 mmHg 86%
    08:00 0°C° 0.7 mm 4 mps 598 mmHg 84%
    09:00 +1°C° 0.7 mm 4 mps 598 mmHg 83%
    10:00 +3°C° 0.7 mm 4 mps 598 mmHg 82%
    11:00 +3°C° 1.2 mm 4 mps 598 mmHg 82%
    12:00 +3°C° 1.2 mm 4 mps 598 mmHg 83%
    13:00 +4°C° 1.2 mm 4 mps 598 mmHg 83%
    14:00 +3°C° 1.5 mm 4 mps 598 mmHg 85%
    15:00 +3°C° 1.5 mm 4 mps 598 mmHg 87%
    16:00 +1°C° 1.5 mm 4 mps 597 mmHg 90%
    17:00 +1°C° 0.9 mm 4 mps 598 mmHg 91%
    18:00 +1°C° 0.9 mm 3 mps 598 mmHg 92%
    19:00 +1°C° 0.9 mm 3 mps 598 mmHg 93%
    20:00 +1°C° 0.9 mm 3 mps 598 mmHg 94%
    21:00 +1°C° 0.9 mm 3 mps 599 mmHg 94%
    22:00 +1°C° 0.9 mm 3 mps 599 mmHg 95%
    23:00 +1°C° 0.7 mm 3 mps 599 mmHg 95%

    25 October, Thursday

    Time Temperature Precipitation Wind Pressure Humidity
    00:00 +1°C° 0.7 mm 3 mps 599 mmHg 95%
    01:00 +1°C° 0.7 mm 3 mps 599 mmHg 96%
    02:00 0°C° 0.2 mm 3 mps 599 mmHg 96%
    03:00 +1°C° 0.2 mm 2 mps 599 mmHg 96%
    04:00 +1°C° 0.2 mm 2 mps 599 mmHg 96%
    05:00 +1°C° 0.1 mm 2 mps 599 mmHg 96%
    06:00 -1°C° 0.1 mm 2 mps 599 mmHg 96%
    07:00 -1°C° 0.1 mm 2 mps 599 mmHg 96%
    08:00 +2°C° 0 mm 2 mps 599 mmHg 90%
    09:00 +4°C° 0 mm 1 mps 600 mmHg 83%
    10:00 +5°C° 0 mm 1 mps 600 mmHg 77%
    11:00 +6°C° 0 mm 1 mps 601 mmHg 72%
    12:00 +8°C° 0 mm 1 mps 601 mmHg 66%
    13:00 +9°C° 0 mm 1 mps 601 mmHg 60%
    14:00 +8°C° 0 mm 1 mps 600 mmHg 65%
    15:00 +7°C° 0 mm 1 mps 600 mmHg 70%
    16:00 +7°C° 0 mm 1 mps 599 mmHg 75%
    17:00 +5°C° 0 mm 1 mps 598 mmHg 80%
    18:00 +3°C° 0 mm 1 mps 597 mmHg 84%
    19:00 +1°C° 0 mm 1 mps 597 mmHg 89%
    20:00 +1°C° 0 mm 1 mps 596 mmHg 88%
    21:00 +1°C° 0 mm 1 mps 596 mmHg 87%
    22:00 +1°C° 0 mm 1 mps 596 mmHg 86%
    23:00 +1°C° 0 mm 1 mps 596 mmHg 85%

    26 October, Friday

    Time Temperature Precipitation Wind Pressure Humidity
    00:00 +1°C° 0 mm 1 mps 596 mmHg 85%
    01:00 +1°C° 0 mm 1 mps 595 mmHg 85%
    02:00 -1°C° 0 mm 2 mps 595 mmHg 85%
    03:00 -2°C° 0 mm 2 mps 594 mmHg 86%
    04:00 -2°C° 0 mm 2 mps 594 mmHg 86%
    05:00 -2°C° 0 mm 2 mps 594 mmHg 87%
    06:00 -2°C° 0 mm 2 mps 594 mmHg 87%
    07:00 -2°C° 0 mm 2 mps 593 mmHg 88%
    08:00 +1°C° 0 mm 2 mps 594 mmHg 80%
    09:00 +4°C° 0 mm 2 mps 595 mmHg 73%
    10:00 +6°C° 0 mm 2 mps 596 mmHg 65%
    11:00 +7°C° 0 mm 2 mps 596 mmHg 62%
    12:00 +8°C° 0 mm 2 mps 595 mmHg 59%
    13:00 +8°C° 0 mm 2 mps 595 mmHg 56%
    14:00 +8°C° 0 mm 2 mps 595 mmHg 63%
    15:00 +7°C° 0 mm 2 mps 594 mmHg 69%
    16:00 +6°C° 0 mm 2 mps 593 mmHg 75%
    17:00 +5°C° 0 mm 2 mps 593 mmHg 81%
    18:00 +3°C° 0 mm 2 mps 592 mmHg 87%
    19:00 +2°C° 0 mm 2 mps 592 mmHg 92%
    20:00 +2°C° 0 mm 2 mps 592 mmHg 93%
    21:00 +2°C° 0 mm 2 mps 592 mmHg 93%
    22:00 +2°C° 0 mm 2 mps 592 mmHg 93%
    23:00 +2°C° 0.1 mm 2 mps 592 mmHg 93%
    Show more